Back to catalog

FENGYUN 1C DEB

AlivePO
NORAD 33603·DEBRIS·🇨🇳 China

Launched May 10, 1999 from Taiyuan Satellite Launch Center

Loading…

Next Passes (next 24 hours)

TLE

FreshSource: Space-Track

Epoch: Sep 14, 2026, 03:10 UTC

1 33603U 99025DCL 26257.13235540  .00001302  00000-0  12011-3 0  9999
2 33603  98.8365 225.3014 0214276 279.8288  77.8790 14.81214375 29329

Track FENGYUN 1C DEB in real time with AllMySat

Download on the App Store